Home > Weather > Funchal > Past weeks

Flag for Portugal Past Weather in Funchal, Madeira, Portugal — Yesterday and Last 2 Weeks

Now
70 °F

Passing clouds.


Feels Like: 70 °F
Forecast: 71 / 77 °F
Wind: 16 mph from Northeast

Location: Aeroporto Da Madeira

Current Time: Jul 29, 2016 at 1:32:38 AM

Latest Report: Jul 29, 2016 at 1:00 AM


Visibility: N/A

Pressure: 30.12 "Hg

Humidity: 78%

Dew Point: 63 °F

Location of FunchalLocation

Past Weather in Funchal — Graph

°F

Funchal Temperature Yesterday

Maximum temperature yesterday: 79 °F (at 3:30 PM)
Minimum temperature yesterday: 68 °F (at 7:00 AM)
Average temperature yesterday: 73 °F

High & Low Weather Summary for the Past Weeks

 TemperatureHumidityPressure
High93 °F (Jul 26, 4:00 PM)88% (Jul 15, 11:00 PM)30.21 "Hg (Jul 15, 11:00 PM)
Low64 °F (Jul 17, 6:30 AM)19% (Jul 14, 3:00 PM)29.98 "Hg (Jul 18, 5:00 PM)
Average73 °F67%30.09 "Hg
* Reported Jul 14 12:00 AM — Jul 29 12:30 AM, Funchal, Weather by CustomWeather, © 2016

Note: Actual official high and low records may vary slightly from our data, if they occured in-between our weather recording intervals... More about our weather records

Advertising

Funchal Weather History for the Previous 24 Hours

Scroll right to see more
 ConditionsComfort  
Time TempWeatherWind HumidityBarometerVisibility
12:30 AM
Fri, Jul 29
72 °FPassing clouds.14 mph69%30.12 "HgN/A
12:00 AM70 °FPassing clouds.12 mph73%30.12 "HgN/A
11:30 PM
Thu, Jul 28
70 °FPassing clouds.15 mph73%30.12 "HgN/A
11:00 PM72 °FPassing clouds.15 mph73%30.12 "HgN/A
10:30 PM72 °FPassing clouds.15 mph69%30.12 "HgN/A
10:00 PM72 °FPassing clouds.16 mph69%30.09 "HgN/A
9:30 PM72 °FPassing clouds.16 mph69%30.09 "HgN/A
9:00 PM72 °FScattered clouds.20 mph69%30.09 "HgN/A
8:30 PM73 °FScattered clouds.12 mph65%30.09 "HgN/A
8:00 PM73 °FScattered clouds.15 mph65%30.12 "HgN/A
7:30 PM75 °FScattered clouds.18 mph61%30.12 "HgN/A
7:00 PM73 °FPassing clouds.13 mph65%30.12 "HgN/A
6:30 PM73 °FScattered clouds.12 mph65%30.12 "HgN/A
6:00 PM75 °FScattered clouds.9 mph61%30.15 "HgN/A
5:30 PM75 °FScattered clouds.16 mph65%30.12 "HgN/A
5:00 PM77 °FPassing clouds.18 mph61%30.12 "HgN/A
4:30 PM79 °FPassing clouds.17 mph54%30.12 "HgN/A
4:00 PM79 °FPassing clouds.21 mph54%30.12 "HgN/A
3:30 PM79 °FPassing clouds.21 mph58%30.12 "HgN/A
3:00 PM77 °FPassing clouds.28 mph61%30.12 "HgN/A
2:30 PM77 °FPassing clouds.28 mph61%30.12 "HgN/A
2:00 PM75 °FScattered clouds.28 mph69%30.15 "HgN/A
1:30 PM75 °FScattered clouds.22 mph65%30.15 "HgN/A
1:00 PM75 °FScattered showers. Scattered clouds.22 mph69%30.15 "HgN/A
12:30 PM77 °FScattered clouds.23 mph57%30.15 "HgN/A
12:00 PM77 °FScattered clouds.17 mph57%30.15 "HgN/A
11:30 AM75 °FScattered clouds.22 mph61%30.15 "HgN/A
11:00 AM75 °FPassing clouds.23 mph57%30.15 "HgN/A
10:30 AM73 °FPassing clouds.25 mph61%30.15 "HgN/A
10:00 AM72 °FScattered clouds.25 mph65%30.12 "HgN/A
9:30 AM72 °FScattered clouds.28 mph69%30.12 "HgN/A
9:00 AM70 °FPassing clouds.25 mph73%30.12 "HgN/A
8:30 AM70 °FPassing clouds.21 mph69%30.15 "HgN/A
8:00 AM70 °FPassing clouds.21 mph73%30.15 "HgN/A
7:30 AM68 °FPassing clouds.20 mph78%30.15 "HgN/A
7:00 AM68 °FPassing clouds.20 mph78%30.15 "HgN/A
6:30 AM70 °FPassing clouds.22 mph73%30.15 "HgN/A
6:00 AM70 °FPassing clouds.22 mph73%30.15 "HgN/A
5:30 AM70 °FPassing clouds.18 mph73%30.15 "HgN/A
5:00 AM70 °FPassing clouds.17 mph73%30.15 "HgN/A
4:30 AM70 °FPassing clouds.18 mph69%30.15 "HgN/A
4:00 AM70 °FPassing clouds.20 mph69%30.15 "HgN/A
3:30 AM70 °FPassing clouds.21 mph69%30.15 "HgN/A
3:00 AM70 °FPassing clouds.22 mph69%30.15 "HgN/A
2:30 AM70 °FPassing clouds.24 mph69%30.15 "HgN/A
2:00 AM70 °FPassing clouds.24 mph69%30.15 "HgN/A
1:30 AM70 °FPassing clouds.22 mph69%30.18 "HgN/A
1:00 AM70 °FPassing clouds.22 mph69%30.18 "HgN/A
Weather by CustomWeather, © 2016

See weather overviewHow to use our weather pages